Wetbulb
40.69 41.83 43.08 44.34 47.59 52.91 56.27 57.74 58.21 58.38 57.42 56.13 54.85 53.28 51.98 50.05 49.07 47.24 46.82 44.91 44.30 42.89
39.71 41.24 42.11 43.68 47.45 53.33 57.08 57.10 57.19 57.57 56.38 55.49 54.15 52.41 50.91 49.65 48.68 47.37 46.58 44.73 43.13 40.25
38.98 41.16 42.66 44.24 45.77 51.49 47.59 48.37 54.22 55.53 54.21 53.39 52.16 51.03 50.34 48.60 44.28 40.96 40.35 38.59 35.88 35.91
38.41 40.73 42.02 42.76 44.35 43.46 43.64 41.97 39.20 39.38 41.63 40.87 39.58 39.11 36.68 35.88 36.61 35.12 34.52 35.23 34.38 32.97
40.51 41.18 38.71 35.39 35.57 36.33 34.28 35.34 35.86 35.64 34.59 34.77 35.03 35.53 35.00 33.92 34.36 34.15 33.61 33.49 33.22 31.88
34.83 33.45 32.89 33.05 33.83 33.98 33.83 33.74 33.78 34.12 33.87 33.49 34.18 33.99 34.05 33.94 33.12 32.45 32.04 31.82 31.39 30.99
32.74 32.86 33.00 33.16 33.36 33.50 33.76 33.35 33.23 33.34 35.28 33.98 33.73 32.76 32.37 32.07 31.19 30.30 29.83 29.81 29.58 29.27
31.99 32.20 32.42 31.86 31.75 32.18 32.16 32.04 32.24 31.79 31.24 31.21 31.12 30.74 29.44 29.00 28.37 28.10 27.95 28.51 28.65 28.64
30.34 30.24 29.89 30.26 30.20 30.20 30.02 30.14 30.12 29.67 29.62 29.61 30.53 32.24 31.46 29.26 27.68 27.74 27.31 26.80 27.63 28.32
29.22 29.02 29.06 29.39 29.04 28.67 28.53 28.90 28.74 28.96 29.16 28.97 30.11 32.06 31.65 30.35 28.29 27.32 26.85 26.70 26.70 26.79
28.48 28.28 28.61 28.29 27.89 27.88 28.22 27.87 27.85 28.14 28.92 29.61 31.12 32.32 31.13 29.67 27.78 27.35 27.37 26.85 26.02 24.91
28.00 27.73 27.78 27.47 27.60 28.02 27.76 27.52 27.90 28.60 28.53 28.37 29.10 30.93 30.15 28.07 26.43 25.59 25.32 25.56 24.75 23.57
28.35 27.75 27.18 27.41 27.33 27.73 27.51 27.14 27.45 27.16 27.14 27.33 27.23 29.56 28.81 26.45 24.70 22.90 22.75 23.30 23.57 25.00
27.72 27.46 27.46 27.23 27.24 26.68 25.96 25.73 25.32 25.07 25.40 25.53 25.90 26.48 28.50 27.88 24.86 23.54 22.63 22.43 22.76 24.19
MSLP
1003.33 1002.93 1002.46 1002.08 1001.73 1000.96 1000.09 999.58 999.37 999.83 1001.05 1002.34 1003.01 1004.64 1006.06 1007.21 1008.45 1009.38 1010.09 1011.26 1012.38 1013.44
1002.76 1002.15 1001.78 1001.38 1001.14 1000.39 999.22 999.32 999.75 1000.48 1001.18 1001.59 1002.53 1003.99 1004.89 1006.08 1007.42 1008.77 1009.76 1011.11 1012.01 1013.21
1001.95 1001.45 1001.04 1000.73 1000.54 1000.24 999.39 999.59 999.53 999.63 1000.86 1001.83 1003.06 1004.27 1005.01 1005.49 1007.02 1008.84 1010.19 1011.20 1012.34 1013.33
1001.21 1000.77 1000.47 1000.41 1000.45 1000.05 999.58 1000.22 1000.91 1000.91 1001.90 1002.59 1003.53 1004.53 1005.85 1007.17 1007.70 1009.03 1010.50 1011.87 1012.41 1013.59
1000.69 1000.50 1000.47 1000.55 1000.53 1000.59 1000.52 1000.97 1001.01 1002.19 1003.51 1003.70 1004.33 1005.25 1006.34 1007.90 1008.90 1009.59 1011.24 1012.40 1013.05 1014.49
1000.89 1001.00 1001.06 1001.19 1001.06 1001.00 1001.62 1002.04 1002.82 1002.56 1003.95 1004.46 1005.68 1006.17 1007.65 1008.44 1009.62 1010.70 1012.00 1013.12 1013.99 1015.05
1001.46 1001.61 1001.50 1001.81 1001.89 1001.88 1002.37 1002.88 1003.58 1004.36 1004.47 1006.07 1006.36 1007.34 1008.73 1009.78 1010.71 1011.56 1012.80 1014.00 1014.40 1015.56
1002.22 1002.23 1002.27 1002.68 1002.90 1003.10 1003.78 1004.39 1004.91 1006.14 1006.94 1007.95 1007.72 1008.70 1009.92 1010.79 1012.00 1012.91 1013.90 1015.09 1015.58 1016.50
1003.19 1003.20 1003.45 1003.56 1004.14 1004.75 1005.16 1005.65 1006.56 1007.44 1008.18 1008.85 1009.77 1010.57 1011.20 1011.94 1012.90 1013.92 1015.08 1016.07 1016.86 1017.62
1004.58 1004.53 1004.90 1005.12 1005.50 1005.64 1006.70 1007.09 1008.04 1008.91 1009.39 1010.26 1011.41 1011.85 1012.55 1013.51 1014.43 1015.20 1016.04 1016.96 1017.86 1018.77
1006.05 1006.07 1006.23 1006.24 1006.80 1007.59 1008.05 1008.59 1009.56 1010.32 1011.06 1011.68 1012.53 1012.91 1013.79 1014.42 1015.47 1016.34 1017.14 1017.80 1018.56 1019.43
1007.81 1007.81 1007.67 1008.09 1008.67 1009.05 1009.54 1010.07 1010.97 1012.01 1012.39 1012.87 1013.91 1014.55 1015.07 1015.45 1016.46 1017.23 1018.28 1019.26 1019.94 1020.42
1009.47 1009.27 1009.32 1009.70 1010.26 1010.79 1010.99 1011.51 1012.44 1013.47 1013.97 1014.67 1015.30 1015.89 1016.22 1016.66 1017.21 1018.27 1019.11 1020.02 1020.52 1021.23
1010.96 1010.85 1011.10 1011.36 1011.71 1012.08 1012.54 1013.06 1013.94 1014.67 1015.51 1015.73 1016.11 1016.88 1017.35 1017.77 1017.89 1018.69 1019.50 1019.99 1020.65 1021.17
Wind_Speed
14 10 9 10 10 11 9 7 8 16 16 21 21 21 20 16 16 18 16 20 15 11
14 13 10 11 10 11 9 9 13 16 13 15 16 18 19 13 15 15 13 12 11 10
14 12 10 9 10 11 4 4 8 14 11 10 13 12 13 12 11 10 7 9 14 11
13 11 7 6 3 2 7 9 10 10 8 11 11 12 13 10 12 15 14 12 15 14
7 3 3 3 3 8 9 9 11 14 12 11 13 13 15 13 13 16 15 14 17 14
4 5 5 6 7 12 11 12 11 14 12 15 12 16 14 16 15 15 14 14 15 14
6 7 9 9 10 13 12 14 14 13 15 11 16 15 15 16 17 17 16 15 15 14
8 10 12 13 13 14 15 14 16 15 15 13 13 12 16 17 18 18 18 15 15 13
12 13 14 15 14 16 17 17 17 17 17 17 12 27 27 21 17 17 16 15 14 13
12 14 14 15 16 18 17 18 18 18 19 19 18 30 29 26 14 15 15 14 13 11
13 14 15 17 17 17 15 18 16 16 16 16 16 29 28 26 15 13 13 12 12 12
13 14 16 16 16 15 15 16 15 13 15 17 16 25 25 19 13 13 13 11 10 10
12 14 16 15 15 14 15 16 13 15 14 16 14 21 21 15 10 12 9 9 10 12
13 15 14 14 13 14 15 15 14 14 11 12 11 13 18 17 9 9 8 7 7 6
Wind_Direction
263 262 260 262 264 266 231 206 207 174 179 179 174 178 181 181 183 187 184 182 181 169
277 254 258 262 263 266 224 188 183 182 179 171 176 178 173 177 180 183 185 185 164 144
259 265 251 257 265 257 92 93 197 171 166 168 169 182 184 169 145 129 124 129 126 120
250 255 250 259 248 286 109 110 89 61 87 113 111 108 100 90 110 116 120 126 117 114
251 308 24 75 133 80 75 66 95 116 88 78 92 100 109 105 113 115 115 116 118 118
65 72 79 73 88 95 93 87 79 83 95 104 94 109 104 111 111 108 106 111 108 112
78 84 81 79 81 88 87 89 87 82 87 98 112 102 105 111 112 112 110 111 109 110
80 82 83 82 75 80 84 86 86 91 89 84 84 102 109 104 107 104 101 98 99 102
75 80 80 81 83 86 84 84 86 85 88 87 90 105 105 106 106 105 104 103 99 98
72 79 81 86 84 79 88 88 87 90 93 96 101 102 99 98 96 101 102 105 104 101
66 75 81 79 80 87 86 88 90 91 95 100 101 104 103 100 100 96 95 100 109 115
63 75 79 80 82 85 88 87 83 83 91 91 95 100 101 99 97 94 94 101 112 120
63 73 76 77 78 83 82 82 84 84 83 93 97 107 110 109 110 108 109 107 109 122
53 62 68 77 77 83 86 85 86 88 89 95 99 113 118 118 113 117 121 121 127 136